Index of /20260509/WXO-DD/model_rdps/10km/18/045
Name Last modified Size Description
Parent Directory -
20260509T18Z_MSC_RDPS_AbsoluteVorticity_IsbL-0250_RLatLon0.09_PT045H.grib2 2026-05-09 20:52 606K
20260509T18Z_MSC_RDPS_AbsoluteVorticity_IsbL-0500_RLatLon0.09_PT045H.grib2 2026-05-09 20:52 577K
20260509T18Z_MSC_RDPS_AbsoluteVorticity_IsbL-0700_RLatLon0.09_PT045H.grib2 2026-05-09 20:52 624K
20260509T18Z_MSC_RDPS_AbsoluteVorticity_IsbL-0850_RLatLon0.09_PT045H.grib2 2026-05-09 20:52 788K
20260509T18Z_MSC_RDPS_AirTemp_AGL-120m_RLatLon0.09_PT045H.grib2 2026-05-09 20:52 386K
20260509T18Z_MSC_RDPS_AirTemp_AGL-2m_RLatLon0.09_PT045H.grib2 2026-05-09 20:52 632K
20260509T18Z_MSC_RDPS_AirTemp_AGL-40m_RLatLon0.09_PT045H.grib2 2026-05-09 20:52 397K
20260509T18Z_MSC_RDPS_AirTemp_AGL-80m_RLatLon0.09_PT045H.grib2 2026-05-09 20:52 392K
20260509T18Z_MSC_RDPS_AirTemp_IsbL-0001_RLatLon0.09_PT045H.grib2 2026-05-09 20:52 249K
20260509T18Z_MSC_RDPS_AirTemp_IsbL-0005_RLatLon0.09_PT045H.grib2 2026-05-09 20:52 383K
20260509T18Z_MSC_RDPS_AirTemp_IsbL-0010_RLatLon0.09_PT045H.grib2 2026-05-09 20:52 393K
20260509T18Z_MSC_RDPS_AirTemp_IsbL-0020_RLatLon0.09_PT045H.grib2 2026-05-09 20:52 320K
20260509T18Z_MSC_RDPS_AirTemp_IsbL-0030_RLatLon0.09_PT045H.grib2 2026-05-09 20:52 342K
20260509T18Z_MSC_RDPS_AirTemp_IsbL-0050_RLatLon0.09_PT045H.grib2 2026-05-09 20:52 312K
20260509T18Z_MSC_RDPS_AirTemp_IsbL-0100_RLatLon0.09_PT045H.grib2 2026-05-09 20:52 421K
20260509T18Z_MSC_RDPS_AirTemp_IsbL-0150_RLatLon0.09_PT045H.grib2 2026-05-09 20:52 401K
20260509T18Z_MSC_RDPS_AirTemp_IsbL-0175_RLatLon0.09_PT045H.grib2 2026-05-09 20:52 393K
20260509T18Z_MSC_RDPS_AirTemp_IsbL-0200_RLatLon0.09_PT045H.grib2 2026-05-09 20:52 401K
20260509T18Z_MSC_RDPS_AirTemp_IsbL-0225_RLatLon0.09_PT045H.grib2 2026-05-09 20:52 408K
20260509T18Z_MSC_RDPS_AirTemp_IsbL-0250_RLatLon0.09_PT045H.grib2 2026-05-09 20:52 421K
20260509T18Z_MSC_RDPS_AirTemp_IsbL-0275_RLatLon0.09_PT045H.grib2 2026-05-09 20:52 402K
20260509T18Z_MSC_RDPS_AirTemp_IsbL-0300_RLatLon0.09_PT045H.grib2 2026-05-09 20:52 408K
20260509T18Z_MSC_RDPS_AirTemp_IsbL-0350_RLatLon0.09_PT045H.grib2 2026-05-09 20:52 420K
20260509T18Z_MSC_RDPS_AirTemp_IsbL-0400_RLatLon0.09_PT045H.grib2 2026-05-09 20:52 425K
20260509T18Z_MSC_RDPS_AirTemp_IsbL-0450_RLatLon0.09_PT045H.grib2 2026-05-09 20:52 434K
20260509T18Z_MSC_RDPS_AirTemp_IsbL-0500_RLatLon0.09_PT045H.grib2 2026-05-09 20:52 445K
20260509T18Z_MSC_RDPS_AirTemp_IsbL-0550_RLatLon0.09_PT045H.grib2 2026-05-09 20:52 462K
20260509T18Z_MSC_RDPS_AirTemp_IsbL-0600_RLatLon0.09_PT045H.grib2 2026-05-09 20:52 480K
20260509T18Z_MSC_RDPS_AirTemp_IsbL-0650_RLatLon0.09_PT045H.grib2 2026-05-09 20:52 496K
20260509T18Z_MSC_RDPS_AirTemp_IsbL-0700_RLatLon0.09_PT045H.grib2 2026-05-09 20:52 521K
20260509T18Z_MSC_RDPS_AirTemp_IsbL-0750_RLatLon0.09_PT045H.grib2 2026-05-09 20:52 565K
20260509T18Z_MSC_RDPS_AirTemp_IsbL-0800_RLatLon0.09_PT045H.grib2 2026-05-09 20:52 627K
20260509T18Z_MSC_RDPS_AirTemp_IsbL-0850_RLatLon0.09_PT045H.grib2 2026-05-09 20:52 634K
20260509T18Z_MSC_RDPS_AirTemp_IsbL-0875_RLatLon0.09_PT045H.grib2 2026-05-09 20:52 652K
20260509T18Z_MSC_RDPS_AirTemp_IsbL-0900_RLatLon0.09_PT045H.grib2 2026-05-09 20:52 662K
20260509T18Z_MSC_RDPS_AirTemp_IsbL-0925_RLatLon0.09_PT045H.grib2 2026-05-09 20:52 535K
20260509T18Z_MSC_RDPS_AirTemp_IsbL-0950_RLatLon0.09_PT045H.grib2 2026-05-09 20:52 542K
20260509T18Z_MSC_RDPS_AirTemp_IsbL-0970_RLatLon0.09_PT045H.grib2 2026-05-09 20:52 539K
20260509T18Z_MSC_RDPS_AirTemp_IsbL-0985_RLatLon0.09_PT045H.grib2 2026-05-09 20:52 529K
20260509T18Z_MSC_RDPS_AirTemp_IsbL-1000_RLatLon0.09_PT045H.grib2 2026-05-09 20:52 512K
20260509T18Z_MSC_RDPS_AirTemp_IsbL-1015_RLatLon0.09_PT045H.grib2 2026-05-09 20:52 513K
20260509T18Z_MSC_RDPS_Albedo_Sfc_RLatLon0.09_PT045H.grib2 2026-05-09 20:52 159K
20260509T18Z_MSC_RDPS_CAPE_Sfc_RLatLon0.09_PT045H.grib2 2026-05-09 20:52 1.8M
20260509T18Z_MSC_RDPS_CIN_Sfc_RLatLon0.09_PT045H.grib2 2026-05-09 20:52 1.3M
20260509T18Z_MSC_RDPS_CloudWater_EAtm_RLatLon0.09_PT045H.grib2 2026-05-09 20:52 227K
20260509T18Z_MSC_RDPS_ConvectivePrecip-Accum_Sfc_RLatLon0.09_PT045H.grib2 2026-05-09 20:52 1.1M
20260509T18Z_MSC_RDPS_DewPointDepression_AGL-2m_RLatLon0.09_PT045H.grib2 2026-05-09 20:52 419K
20260509T18Z_MSC_RDPS_DewPointDepression_IsbL-0001_RLatLon0.09_PT045H.grib2 2026-05-09 20:52 193
20260509T18Z_MSC_RDPS_DewPointDepression_IsbL-0005_RLatLon0.09_PT045H.grib2 2026-05-09 20:52 193
20260509T18Z_MSC_RDPS_DewPointDepression_IsbL-0010_RLatLon0.09_PT045H.grib2 2026-05-09 20:52 193
20260509T18Z_MSC_RDPS_DewPointDepression_IsbL-0020_RLatLon0.09_PT045H.grib2 2026-05-09 20:52 193
20260509T18Z_MSC_RDPS_DewPointDepression_IsbL-0030_RLatLon0.09_PT045H.grib2 2026-05-09 20:52 193
20260509T18Z_MSC_RDPS_DewPointDepression_IsbL-0050_RLatLon0.09_PT045H.grib2 2026-05-09 20:52 108K
20260509T18Z_MSC_RDPS_DewPointDepression_IsbL-0100_RLatLon0.09_PT045H.grib2 2026-05-09 20:52 112K
20260509T18Z_MSC_RDPS_DewPointDepression_IsbL-0150_RLatLon0.09_PT045H.grib2 2026-05-09 20:52 143K
20260509T18Z_MSC_RDPS_DewPointDepression_IsbL-0175_RLatLon0.09_PT045H.grib2 2026-05-09 20:52 163K
20260509T18Z_MSC_RDPS_DewPointDepression_IsbL-0200_RLatLon0.09_PT045H.grib2 2026-05-09 20:52 208K
20260509T18Z_MSC_RDPS_DewPointDepression_IsbL-0225_RLatLon0.09_PT045H.grib2 2026-05-09 20:52 253K
20260509T18Z_MSC_RDPS_DewPointDepression_IsbL-0250_RLatLon0.09_PT045H.grib2 2026-05-09 20:52 299K
20260509T18Z_MSC_RDPS_DewPointDepression_IsbL-0275_RLatLon0.09_PT045H.grib2 2026-05-09 20:52 306K
20260509T18Z_MSC_RDPS_DewPointDepression_IsbL-0300_RLatLon0.09_PT045H.grib2 2026-05-09 20:52 320K
20260509T18Z_MSC_RDPS_DewPointDepression_IsbL-0350_RLatLon0.09_PT045H.grib2 2026-05-09 20:52 328K
20260509T18Z_MSC_RDPS_DewPointDepression_IsbL-0400_RLatLon0.09_PT045H.grib2 2026-05-09 20:52 341K
20260509T18Z_MSC_RDPS_DewPointDepression_IsbL-0450_RLatLon0.09_PT045H.grib2 2026-05-09 20:52 349K
20260509T18Z_MSC_RDPS_DewPointDepression_IsbL-0500_RLatLon0.09_PT045H.grib2 2026-05-09 20:52 353K
20260509T18Z_MSC_RDPS_DewPointDepression_IsbL-0550_RLatLon0.09_PT045H.grib2 2026-05-09 20:52 363K
20260509T18Z_MSC_RDPS_DewPointDepression_IsbL-0600_RLatLon0.09_PT045H.grib2 2026-05-09 20:52 373K
20260509T18Z_MSC_RDPS_DewPointDepression_IsbL-0650_RLatLon0.09_PT045H.grib2 2026-05-09 20:52 381K
20260509T18Z_MSC_RDPS_DewPointDepression_IsbL-0700_RLatLon0.09_PT045H.grib2 2026-05-09 20:52 392K
20260509T18Z_MSC_RDPS_DewPointDepression_IsbL-0750_RLatLon0.09_PT045H.grib2 2026-05-09 20:52 411K
20260509T18Z_MSC_RDPS_DewPointDepression_IsbL-0800_RLatLon0.09_PT045H.grib2 2026-05-09 20:52 458K
20260509T18Z_MSC_RDPS_DewPointDepression_IsbL-0850_RLatLon0.09_PT045H.grib2 2026-05-09 20:52 472K
20260509T18Z_MSC_RDPS_DewPointDepression_IsbL-0875_RLatLon0.09_PT045H.grib2 2026-05-09 20:52 467K
20260509T18Z_MSC_RDPS_DewPointDepression_IsbL-0900_RLatLon0.09_PT045H.grib2 2026-05-09 20:52 456K
20260509T18Z_MSC_RDPS_DewPointDepression_IsbL-0925_RLatLon0.09_PT045H.grib2 2026-05-09 20:52 447K
20260509T18Z_MSC_RDPS_DewPointDepression_IsbL-0950_RLatLon0.09_PT045H.grib2 2026-05-09 20:52 448K
20260509T18Z_MSC_RDPS_DewPointDepression_IsbL-0970_RLatLon0.09_PT045H.grib2 2026-05-09 20:52 448K
20260509T18Z_MSC_RDPS_DewPointDepression_IsbL-0985_RLatLon0.09_PT045H.grib2 2026-05-09 20:52 443K
20260509T18Z_MSC_RDPS_DewPointDepression_IsbL-1000_RLatLon0.09_PT045H.grib2 2026-05-09 20:52 436K
20260509T18Z_MSC_RDPS_DewPointDepression_IsbL-1015_RLatLon0.09_PT045H.grib2 2026-05-09 20:52 425K
20260509T18Z_MSC_RDPS_DewPoint_AGL-2m_RLatLon0.09_PT045H.grib2 2026-05-09 20:52 400K
20260509T18Z_MSC_RDPS_DownwardLongwaveRadiationFlux-Accum_Sfc_RLatLon0.09_PT045H.grib2 2026-05-09 20:52 399K
20260509T18Z_MSC_RDPS_DownwardShortwaveRadiationFlux-Accum_NTAtm_RLatLon0.09_PT045H.grib2 2026-05-09 20:52 111K
20260509T18Z_MSC_RDPS_DownwardShortwaveRadiationFlux-Accum_Sfc_RLatLon0.09_PT045H.grib2 2026-05-09 20:52 560K
20260509T18Z_MSC_RDPS_FreezingRain-Accum1h_Sfc_RLatLon0.09_PT045H.grib2 2026-05-09 20:52 43K
20260509T18Z_MSC_RDPS_FreezingRain-Accum3h_Sfc_RLatLon0.09_PT045H.grib2 2026-05-09 20:52 55K
20260509T18Z_MSC_RDPS_FreezingRain-Accum_Sfc_RLatLon0.09_PT045H.grib2 2026-05-09 20:52 168K
20260509T18Z_MSC_RDPS_GeopotentialHeight_IsbL-0001_RLatLon0.09_PT045H.grib2 2026-05-09 20:52 248K
20260509T18Z_MSC_RDPS_GeopotentialHeight_IsbL-0005_RLatLon0.09_PT045H.grib2 2026-05-09 20:52 341K
20260509T18Z_MSC_RDPS_GeopotentialHeight_IsbL-0010_RLatLon0.09_PT045H.grib2 2026-05-09 20:52 310K
20260509T18Z_MSC_RDPS_GeopotentialHeight_IsbL-0020_RLatLon0.09_PT045H.grib2 2026-05-09 20:52 308K
20260509T18Z_MSC_RDPS_GeopotentialHeight_IsbL-0030_RLatLon0.09_PT045H.grib2 2026-05-09 20:52 311K
20260509T18Z_MSC_RDPS_GeopotentialHeight_IsbL-0050_RLatLon0.09_PT045H.grib2 2026-05-09 20:52 311K
20260509T18Z_MSC_RDPS_GeopotentialHeight_IsbL-0100_RLatLon0.09_PT045H.grib2 2026-05-09 20:52 283K
20260509T18Z_MSC_RDPS_GeopotentialHeight_IsbL-0150_RLatLon0.09_PT045H.grib2 2026-05-09 20:52 224K
20260509T18Z_MSC_RDPS_GeopotentialHeight_IsbL-0175_RLatLon0.09_PT045H.grib2 2026-05-09 20:52 227K
20260509T18Z_MSC_RDPS_GeopotentialHeight_IsbL-0200_RLatLon0.09_PT045H.grib2 2026-05-09 20:52 229K
20260509T18Z_MSC_RDPS_GeopotentialHeight_IsbL-0225_RLatLon0.09_PT045H.grib2 2026-05-09 20:52 231K
20260509T18Z_MSC_RDPS_GeopotentialHeight_IsbL-0250_RLatLon0.09_PT045H.grib2 2026-05-09 20:52 233K
20260509T18Z_MSC_RDPS_GeopotentialHeight_IsbL-0275_RLatLon0.09_PT045H.grib2 2026-05-09 20:52 233K
20260509T18Z_MSC_RDPS_GeopotentialHeight_IsbL-0300_RLatLon0.09_PT045H.grib2 2026-05-09 20:52 233K
20260509T18Z_MSC_RDPS_GeopotentialHeight_IsbL-0350_RLatLon0.09_PT045H.grib2 2026-05-09 20:52 229K
20260509T18Z_MSC_RDPS_GeopotentialHeight_IsbL-0400_RLatLon0.09_PT045H.grib2 2026-05-09 20:52 300K
20260509T18Z_MSC_RDPS_GeopotentialHeight_IsbL-0450_RLatLon0.09_PT045H.grib2 2026-05-09 20:52 295K
20260509T18Z_MSC_RDPS_GeopotentialHeight_IsbL-0500_RLatLon0.09_PT045H.grib2 2026-05-09 20:52 290K
20260509T18Z_MSC_RDPS_GeopotentialHeight_IsbL-0550_RLatLon0.09_PT045H.grib2 2026-05-09 20:52 286K
20260509T18Z_MSC_RDPS_GeopotentialHeight_IsbL-0600_RLatLon0.09_PT045H.grib2 2026-05-09 20:52 283K
20260509T18Z_MSC_RDPS_GeopotentialHeight_IsbL-0650_RLatLon0.09_PT045H.grib2 2026-05-09 20:52 253K
20260509T18Z_MSC_RDPS_GeopotentialHeight_IsbL-0700_RLatLon0.09_PT045H.grib2 2026-05-09 20:52 252K
20260509T18Z_MSC_RDPS_GeopotentialHeight_IsbL-0750_RLatLon0.09_PT045H.grib2 2026-05-09 20:52 255K
20260509T18Z_MSC_RDPS_GeopotentialHeight_IsbL-0800_RLatLon0.09_PT045H.grib2 2026-05-09 20:52 347K
20260509T18Z_MSC_RDPS_GeopotentialHeight_IsbL-0850_RLatLon0.09_PT045H.grib2 2026-05-09 20:52 357K
20260509T18Z_MSC_RDPS_GeopotentialHeight_IsbL-0875_RLatLon0.09_PT045H.grib2 2026-05-09 20:52 360K
20260509T18Z_MSC_RDPS_GeopotentialHeight_IsbL-0900_RLatLon0.09_PT045H.grib2 2026-05-09 20:52 362K
20260509T18Z_MSC_RDPS_GeopotentialHeight_IsbL-0925_RLatLon0.09_PT045H.grib2 2026-05-09 20:52 364K
20260509T18Z_MSC_RDPS_GeopotentialHeight_IsbL-0950_RLatLon0.09_PT045H.grib2 2026-05-09 20:52 370K
20260509T18Z_MSC_RDPS_GeopotentialHeight_IsbL-0970_RLatLon0.09_PT045H.grib2 2026-05-09 20:52 376K
20260509T18Z_MSC_RDPS_GeopotentialHeight_IsbL-0985_RLatLon0.09_PT045H.grib2 2026-05-09 20:52 387K
20260509T18Z_MSC_RDPS_GeopotentialHeight_IsbL-1000_RLatLon0.09_PT045H.grib2 2026-05-09 20:52 401K
20260509T18Z_MSC_RDPS_GeopotentialHeight_IsbL-1015_RLatLon0.09_PT045H.grib2 2026-05-09 20:52 419K
20260509T18Z_MSC_RDPS_HighLowPressure_MSL_RLatLon0.09_PT045H.json 2026-05-09 20:44 19K
20260509T18Z_MSC_RDPS_Humidex_Sfc_RLatLon0.09_PT045H.grib2 2026-05-09 20:52 2.4M
20260509T18Z_MSC_RDPS_IcePellets-Accum1h_Sfc_RLatLon0.09_PT045H.grib2 2026-05-09 20:52 13K
20260509T18Z_MSC_RDPS_IcePellets-Accum3h_Sfc_RLatLon0.09_PT045H.grib2 2026-05-09 20:52 15K
20260509T18Z_MSC_RDPS_IcePellets-Accum_Sfc_RLatLon0.09_PT045H.grib2 2026-05-09 20:52 36K
20260509T18Z_MSC_RDPS_KIndex_Sfc_RLatLon0.09_PT045H.grib2 2026-05-09 20:52 2.5M
20260509T18Z_MSC_RDPS_LatentHeatNetFlux_Sfc_RLatLon0.09_PT045H.grib2 2026-05-09 20:52 393K
20260509T18Z_MSC_RDPS_LiftedIndex-MU-VT_IsbL-0500_RLatLon0.09_PT045H.grib2 2026-05-09 20:52 2.4M
20260509T18Z_MSC_RDPS_NetLongwaveRadiationFlux-Accum_Sfc_RLatLon0.09_PT045H.grib2 2026-05-09 20:52 539K
20260509T18Z_MSC_RDPS_NetShortwaveRadiationFlux-Accum_Sfc_RLatLon0.09_PT045H.grib2 2026-05-09 20:52 556K
20260509T18Z_MSC_RDPS_PlanetaryBoundaryLayerHeight_Sfc_RLatLon0.09_PT045H.grib2 2026-05-09 20:52 1.2M
20260509T18Z_MSC_RDPS_Precip-Accum1h_Sfc_RLatLon0.09_PT045H.grib2 2026-05-09 20:52 1.4M
20260509T18Z_MSC_RDPS_Precip-Accum3h_Sfc_RLatLon0.09_PT045H.grib2 2026-05-09 20:52 1.4M
20260509T18Z_MSC_RDPS_Precip-Accum_Sfc_RLatLon0.09_PT045H.grib2 2026-05-09 20:52 2.0M
20260509T18Z_MSC_RDPS_PrecipRate_Sfc_RLatLon0.09_PT045H.grib2 2026-05-09 20:52 198K
20260509T18Z_MSC_RDPS_PrecipType-Instant_Sfc_RLatLon0.09_PT045H.grib2 2026-05-09 20:52 625K
20260509T18Z_MSC_RDPS_Pressure-Trend3h_Sfc_RLatLon0.09_PT045H.grib2 2026-05-09 20:52 1.2M
20260509T18Z_MSC_RDPS_Pressure_MSL_RLatLon0.09_PT045H.grib2 2026-05-09 20:52 328K
20260509T18Z_MSC_RDPS_Pressure_PVU-1.5_RLatLon0.09_PT045H.grib2 2026-05-09 20:52 2.5M
20260509T18Z_MSC_RDPS_Pressure_PVU-1_RLatLon0.09_PT045H.grib2 2026-05-09 20:52 2.4M
20260509T18Z_MSC_RDPS_Pressure_PVU-2_RLatLon0.09_PT045H.grib2 2026-05-09 20:52 2.4M
20260509T18Z_MSC_RDPS_Pressure_Sfc_RLatLon0.09_PT045H.grib2 2026-05-09 20:52 500K
20260509T18Z_MSC_RDPS_RadiativeTemp_Sfc_RLatLon0.09_PT045H.grib2 2026-05-09 20:52 319K
20260509T18Z_MSC_RDPS_Rain-Accum1h_Sfc_RLatLon0.09_PT045H.grib2 2026-05-09 20:52 718K
20260509T18Z_MSC_RDPS_Rain-Accum3h_Sfc_RLatLon0.09_PT045H.grib2 2026-05-09 20:52 698K
20260509T18Z_MSC_RDPS_Rain-Accum_Sfc_RLatLon0.09_PT045H.grib2 2026-05-09 20:52 1.6M
20260509T18Z_MSC_RDPS_RelativeHumidity_AGL-2m_RLatLon0.09_PT045H.grib2 2026-05-09 20:52 1.0M
20260509T18Z_MSC_RDPS_RelativeHumidity_IsbL-0010_RLatLon0.09_PT045H.grib2 2026-05-09 20:52 590K
20260509T18Z_MSC_RDPS_RelativeHumidity_IsbL-0020_RLatLon0.09_PT045H.grib2 2026-05-09 20:52 638K
20260509T18Z_MSC_RDPS_RelativeHumidity_IsbL-0030_RLatLon0.09_PT045H.grib2 2026-05-09 20:52 627K
20260509T18Z_MSC_RDPS_RelativeHumidity_IsbL-0050_RLatLon0.09_PT045H.grib2 2026-05-09 20:52 354K
20260509T18Z_MSC_RDPS_RelativeHumidity_IsbL-0100_RLatLon0.09_PT045H.grib2 2026-05-09 20:52 273K
20260509T18Z_MSC_RDPS_RelativeHumidity_IsbL-0150_RLatLon0.09_PT045H.grib2 2026-05-09 20:52 414K
20260509T18Z_MSC_RDPS_RelativeHumidity_IsbL-0175_RLatLon0.09_PT045H.grib2 2026-05-09 20:52 463K
20260509T18Z_MSC_RDPS_RelativeHumidity_IsbL-0200_RLatLon0.09_PT045H.grib2 2026-05-09 20:52 531K
20260509T18Z_MSC_RDPS_RelativeHumidity_IsbL-0225_RLatLon0.09_PT045H.grib2 2026-05-09 20:52 608K
20260509T18Z_MSC_RDPS_RelativeHumidity_IsbL-0250_RLatLon0.09_PT045H.grib2 2026-05-09 20:52 691K
20260509T18Z_MSC_RDPS_RelativeHumidity_IsbL-0275_RLatLon0.09_PT045H.grib2 2026-05-09 20:52 719K
20260509T18Z_MSC_RDPS_RelativeHumidity_IsbL-0300_RLatLon0.09_PT045H.grib2 2026-05-09 20:52 759K
20260509T18Z_MSC_RDPS_RelativeHumidity_IsbL-0350_RLatLon0.09_PT045H.grib2 2026-05-09 20:52 775K
20260509T18Z_MSC_RDPS_RelativeHumidity_IsbL-0400_RLatLon0.09_PT045H.grib2 2026-05-09 20:52 794K
20260509T18Z_MSC_RDPS_RelativeHumidity_IsbL-0450_RLatLon0.09_PT045H.grib2 2026-05-09 20:52 806K
20260509T18Z_MSC_RDPS_RelativeHumidity_IsbL-0500_RLatLon0.09_PT045H.grib2 2026-05-09 20:52 822K
20260509T18Z_MSC_RDPS_RelativeHumidity_IsbL-0550_RLatLon0.09_PT045H.grib2 2026-05-09 20:52 828K
20260509T18Z_MSC_RDPS_RelativeHumidity_IsbL-0600_RLatLon0.09_PT045H.grib2 2026-05-09 20:52 857K
20260509T18Z_MSC_RDPS_RelativeHumidity_IsbL-0650_RLatLon0.09_PT045H.grib2 2026-05-09 20:52 862K
20260509T18Z_MSC_RDPS_RelativeHumidity_IsbL-0700_RLatLon0.09_PT045H.grib2 2026-05-09 20:52 894K
20260509T18Z_MSC_RDPS_RelativeHumidity_IsbL-0750_RLatLon0.09_PT045H.grib2 2026-05-09 20:52 933K
20260509T18Z_MSC_RDPS_RelativeHumidity_IsbL-0800_RLatLon0.09_PT045H.grib2 2026-05-09 20:52 1.0M
20260509T18Z_MSC_RDPS_RelativeHumidity_IsbL-0850_RLatLon0.09_PT045H.grib2 2026-05-09 20:52 1.0M
20260509T18Z_MSC_RDPS_RelativeHumidity_IsbL-0875_RLatLon0.09_PT045H.grib2 2026-05-09 20:52 1.1M
20260509T18Z_MSC_RDPS_RelativeHumidity_IsbL-0900_RLatLon0.09_PT045H.grib2 2026-05-09 20:52 1.1M
20260509T18Z_MSC_RDPS_RelativeHumidity_IsbL-0925_RLatLon0.09_PT045H.grib2 2026-05-09 20:52 1.1M
20260509T18Z_MSC_RDPS_RelativeHumidity_IsbL-0950_RLatLon0.09_PT045H.grib2 2026-05-09 20:52 1.1M
20260509T18Z_MSC_RDPS_RelativeHumidity_IsbL-0970_RLatLon0.09_PT045H.grib2 2026-05-09 20:52 1.1M
20260509T18Z_MSC_RDPS_RelativeHumidity_IsbL-0985_RLatLon0.09_PT045H.grib2 2026-05-09 20:52 1.1M
20260509T18Z_MSC_RDPS_RelativeHumidity_IsbL-1000_RLatLon0.09_PT045H.grib2 2026-05-09 20:52 1.0M
20260509T18Z_MSC_RDPS_RelativeHumidity_IsbL-1015_RLatLon0.09_PT045H.grib2 2026-05-09 20:52 1.0M
20260509T18Z_MSC_RDPS_Runoff-Accum_Sfc_RLatLon0.09_PT045H.grib2 2026-05-09 20:52 59K
20260509T18Z_MSC_RDPS_SWEATIndex_Sfc_RLatLon0.09_PT045H.grib2 2026-05-09 20:52 2.5M
20260509T18Z_MSC_RDPS_SeeingIndex_EAtm_RLatLon0.09_PT045H.grib2 2026-05-09 20:52 1.1M
20260509T18Z_MSC_RDPS_SensibleHeatNetFlux_Sfc_RLatLon0.09_PT045H.grib2 2026-05-09 20:52 272K
20260509T18Z_MSC_RDPS_ShowalterIndex_IsbL-0500_RLatLon0.09_PT045H.grib2 2026-05-09 20:52 2.6M
20260509T18Z_MSC_RDPS_SkyTransparencyIndex_EAtm_RLatLon0.09_PT045H.grib2 2026-05-09 20:52 700K
20260509T18Z_MSC_RDPS_Snow-Accum1h_Sfc_RLatLon0.09_PT045H.grib2 2026-05-09 20:52 476K
20260509T18Z_MSC_RDPS_Snow-Accum3h_Sfc_RLatLon0.09_PT045H.grib2 2026-05-09 20:52 441K
20260509T18Z_MSC_RDPS_Snow-Accum_Sfc_RLatLon0.09_PT045H.grib2 2026-05-09 20:52 672K
20260509T18Z_MSC_RDPS_SnowDensity_Sfc_RLatLon0.09_PT045H.grib2 2026-05-09 20:52 170K
20260509T18Z_MSC_RDPS_SnowDepth_Sfc_RLatLon0.09_PT045H.grib2 2026-05-09 20:52 617K
20260509T18Z_MSC_RDPS_SoilTemp_DBS-0to10cm_RLatLon0.09_PT045H.grib2 2026-05-09 20:52 235K
20260509T18Z_MSC_RDPS_SoilTemp_Sfc_RLatLon0.09_PT045H.grib2 2026-05-09 20:52 289K
20260509T18Z_MSC_RDPS_SoilVolumetricIceContent_Sfc_RLatLon0.09_PT045H.grib2 2026-05-09 20:52 141K
20260509T18Z_MSC_RDPS_SoilVolumetricWaterContent_DBS-0to10cm_RLatLon0.09_PT045H.grib2 2026-05-09 20:52 294K
20260509T18Z_MSC_RDPS_SoilVolumetricWaterContent_DBS-0to1cm_RLatLon0.09_PT045H.grib2 2026-05-09 20:52 347K
20260509T18Z_MSC_RDPS_SpecificHumidity_AGL-120m_RLatLon0.09_PT045H.grib2 2026-05-09 20:52 513K
20260509T18Z_MSC_RDPS_SpecificHumidity_AGL-2m_RLatLon0.09_PT045H.grib2 2026-05-09 20:52 683K
20260509T18Z_MSC_RDPS_SpecificHumidity_AGL-40m_RLatLon0.09_PT045H.grib2 2026-05-09 20:52 518K
20260509T18Z_MSC_RDPS_SpecificHumidity_AGL-80m_RLatLon0.09_PT045H.grib2 2026-05-09 20:52 515K
20260509T18Z_MSC_RDPS_SpecificHumidity_IsbL-0001_RLatLon0.09_PT045H.grib2 2026-05-09 20:52 361K
20260509T18Z_MSC_RDPS_SpecificHumidity_IsbL-0005_RLatLon0.09_PT045H.grib2 2026-05-09 20:52 369K
20260509T18Z_MSC_RDPS_SpecificHumidity_IsbL-0010_RLatLon0.09_PT045H.grib2 2026-05-09 20:52 394K
20260509T18Z_MSC_RDPS_SpecificHumidity_IsbL-0020_RLatLon0.09_PT045H.grib2 2026-05-09 20:52 380K
20260509T18Z_MSC_RDPS_SpecificHumidity_IsbL-0030_RLatLon0.09_PT045H.grib2 2026-05-09 20:52 371K
20260509T18Z_MSC_RDPS_SpecificHumidity_IsbL-0050_RLatLon0.09_PT045H.grib2 2026-05-09 20:52 482K
20260509T18Z_MSC_RDPS_SpecificHumidity_IsbL-0100_RLatLon0.09_PT045H.grib2 2026-05-09 20:52 427K
20260509T18Z_MSC_RDPS_SpecificHumidity_IsbL-0150_RLatLon0.09_PT045H.grib2 2026-05-09 20:52 454K
20260509T18Z_MSC_RDPS_SpecificHumidity_IsbL-0175_RLatLon0.09_PT045H.grib2 2026-05-09 20:52 427K
20260509T18Z_MSC_RDPS_SpecificHumidity_IsbL-0200_RLatLon0.09_PT045H.grib2 2026-05-09 20:52 444K
20260509T18Z_MSC_RDPS_SpecificHumidity_IsbL-0225_RLatLon0.09_PT045H.grib2 2026-05-09 20:52 452K
20260509T18Z_MSC_RDPS_SpecificHumidity_IsbL-0250_RLatLon0.09_PT045H.grib2 2026-05-09 20:52 564K
20260509T18Z_MSC_RDPS_SpecificHumidity_IsbL-0275_RLatLon0.09_PT045H.grib2 2026-05-09 20:52 480K
20260509T18Z_MSC_RDPS_SpecificHumidity_IsbL-0300_RLatLon0.09_PT045H.grib2 2026-05-09 20:52 553K
20260509T18Z_MSC_RDPS_SpecificHumidity_IsbL-0350_RLatLon0.09_PT045H.grib2 2026-05-09 20:52 548K
20260509T18Z_MSC_RDPS_SpecificHumidity_IsbL-0400_RLatLon0.09_PT045H.grib2 2026-05-09 20:52 534K
20260509T18Z_MSC_RDPS_SpecificHumidity_IsbL-0450_RLatLon0.09_PT045H.grib2 2026-05-09 20:52 590K
20260509T18Z_MSC_RDPS_SpecificHumidity_IsbL-0500_RLatLon0.09_PT045H.grib2 2026-05-09 20:52 527K
20260509T18Z_MSC_RDPS_SpecificHumidity_IsbL-0550_RLatLon0.09_PT045H.grib2 2026-05-09 20:52 584K
20260509T18Z_MSC_RDPS_SpecificHumidity_IsbL-0600_RLatLon0.09_PT045H.grib2 2026-05-09 20:52 652K
20260509T18Z_MSC_RDPS_SpecificHumidity_IsbL-0650_RLatLon0.09_PT045H.grib2 2026-05-09 20:52 570K
20260509T18Z_MSC_RDPS_SpecificHumidity_IsbL-0700_RLatLon0.09_PT045H.grib2 2026-05-09 20:52 615K
20260509T18Z_MSC_RDPS_SpecificHumidity_IsbL-0750_RLatLon0.09_PT045H.grib2 2026-05-09 20:52 671K
20260509T18Z_MSC_RDPS_SpecificHumidity_IsbL-0800_RLatLon0.09_PT045H.grib2 2026-05-09 20:52 756K
20260509T18Z_MSC_RDPS_SpecificHumidity_IsbL-0850_RLatLon0.09_PT045H.grib2 2026-05-09 20:52 826K
20260509T18Z_MSC_RDPS_SpecificHumidity_IsbL-0875_RLatLon0.09_PT045H.grib2 2026-05-09 20:52 843K
20260509T18Z_MSC_RDPS_SpecificHumidity_IsbL-0900_RLatLon0.09_PT045H.grib2 2026-05-09 20:52 852K
20260509T18Z_MSC_RDPS_SpecificHumidity_IsbL-0925_RLatLon0.09_PT045H.grib2 2026-05-09 20:52 858K
20260509T18Z_MSC_RDPS_SpecificHumidity_IsbL-0950_RLatLon0.09_PT045H.grib2 2026-05-09 20:52 868K
20260509T18Z_MSC_RDPS_SpecificHumidity_IsbL-0970_RLatLon0.09_PT045H.grib2 2026-05-09 20:52 725K
20260509T18Z_MSC_RDPS_SpecificHumidity_IsbL-0985_RLatLon0.09_PT045H.grib2 2026-05-09 20:52 717K
20260509T18Z_MSC_RDPS_SpecificHumidity_IsbL-1000_RLatLon0.09_PT045H.grib2 2026-05-09 20:52 709K
20260509T18Z_MSC_RDPS_SpecificHumidity_IsbL-1015_RLatLon0.09_PT045H.grib2 2026-05-09 20:52 698K
20260509T18Z_MSC_RDPS_SpecificHumidity_Sfc_RLatLon0.09_PT045H.grib2 2026-05-09 20:52 328K
20260509T18Z_MSC_RDPS_StormRelativeHelicity_EtaL-10000_RLatLon0.09_PT045H.grib2 2026-05-09 20:52 1.2M
20260509T18Z_MSC_RDPS_StormSeverityIndex_EtaL-10000_RLatLon0.09_PT045H.grib2 2026-05-09 20:52 1.2M
20260509T18Z_MSC_RDPS_Thickness_IsbL-0850to0700_RLatLon0.09_PT045H.grib2 2026-05-09 20:52 248K
20260509T18Z_MSC_RDPS_Thickness_IsbL-1000to0500_RLatLon0.09_PT045H.grib2 2026-05-09 20:52 196K
20260509T18Z_MSC_RDPS_Thickness_IsbL-1000to0850_RLatLon0.09_PT045H.grib2 2026-05-09 20:52 265K
20260509T18Z_MSC_RDPS_TotalCloudCover_Sfc_RLatLon0.09_PT045H.grib2 2026-05-09 20:52 677K
20260509T18Z_MSC_RDPS_TotalTotalsIndex_Sfc_RLatLon0.09_PT045H.grib2 2026-05-09 20:52 2.4M
20260509T18Z_MSC_RDPS_UVIndex-ClearSky_Sfc_RLatLon0.09_PT045H.grib2 2026-05-09 20:52 185K
20260509T18Z_MSC_RDPS_UVIndex_Sfc_RLatLon0.09_PT045H.grib2 2026-05-09 20:52 570K
20260509T18Z_MSC_RDPS_UpwardLongwaveRadiationFlux_NTAtm_RLatLon0.09_PT045H.grib2 2026-05-09 20:52 493K
20260509T18Z_MSC_RDPS_UpwardShortwaveRadiationFlux_NTAtm_RLatLon0.09_PT045H.grib2 2026-05-09 20:52 499K
20260509T18Z_MSC_RDPS_VerticalVelocity_IsbL-0250_RLatLon0.09_PT045H.grib2 2026-05-09 20:52 570K
20260509T18Z_MSC_RDPS_VerticalVelocity_IsbL-0500_RLatLon0.09_PT045H.grib2 2026-05-09 20:52 539K
20260509T18Z_MSC_RDPS_VerticalVelocity_IsbL-0700_RLatLon0.09_PT045H.grib2 2026-05-09 20:52 549K
20260509T18Z_MSC_RDPS_VerticalVelocity_IsbL-0850_RLatLon0.09_PT045H.grib2 2026-05-09 20:52 526K
20260509T18Z_MSC_RDPS_VerticalWindShear_EtaL-6500_RLatLon0.09_PT045H.grib2 2026-05-09 20:52 1.2M
20260509T18Z_MSC_RDPS_WindChill_Sfc_RLatLon0.09_PT045H.grib2 2026-05-09 20:52 1.2M
20260509T18Z_MSC_RDPS_WindDir_AGL-10m_RLatLon0.09_PT045H.grib2 2026-05-09 20:52 1.0M
20260509T18Z_MSC_RDPS_WindDir_AGL-120m_RLatLon0.09_PT045H.grib2 2026-05-09 20:52 627K
20260509T18Z_MSC_RDPS_WindDir_AGL-40m_RLatLon0.09_PT045H.grib2 2026-05-09 20:52 651K
20260509T18Z_MSC_RDPS_WindDir_AGL-80m_RLatLon0.09_PT045H.grib2 2026-05-09 20:52 637K
20260509T18Z_MSC_RDPS_WindDir_IsbL-0001_RLatLon0.09_PT045H.grib2 2026-05-09 20:52 272K
20260509T18Z_MSC_RDPS_WindDir_IsbL-0005_RLatLon0.09_PT045H.grib2 2026-05-09 20:52 381K
20260509T18Z_MSC_RDPS_WindDir_IsbL-0010_RLatLon0.09_PT045H.grib2 2026-05-09 20:52 405K
20260509T18Z_MSC_RDPS_WindDir_IsbL-0020_RLatLon0.09_PT045H.grib2 2026-05-09 20:52 445K
20260509T18Z_MSC_RDPS_WindDir_IsbL-0030_RLatLon0.09_PT045H.grib2 2026-05-09 20:52 445K
20260509T18Z_MSC_RDPS_WindDir_IsbL-0050_RLatLon0.09_PT045H.grib2 2026-05-09 20:52 461K
20260509T18Z_MSC_RDPS_WindDir_IsbL-0100_RLatLon0.09_PT045H.grib2 2026-05-09 20:52 436K
20260509T18Z_MSC_RDPS_WindDir_IsbL-0150_RLatLon0.09_PT045H.grib2 2026-05-09 20:52 424K
20260509T18Z_MSC_RDPS_WindDir_IsbL-0175_RLatLon0.09_PT045H.grib2 2026-05-09 20:52 442K
20260509T18Z_MSC_RDPS_WindDir_IsbL-0200_RLatLon0.09_PT045H.grib2 2026-05-09 20:52 454K
20260509T18Z_MSC_RDPS_WindDir_IsbL-0225_RLatLon0.09_PT045H.grib2 2026-05-09 20:52 455K
20260509T18Z_MSC_RDPS_WindDir_IsbL-0250_RLatLon0.09_PT045H.grib2 2026-05-09 20:52 457K
20260509T18Z_MSC_RDPS_WindDir_IsbL-0275_RLatLon0.09_PT045H.grib2 2026-05-09 20:52 485K
20260509T18Z_MSC_RDPS_WindDir_IsbL-0300_RLatLon0.09_PT045H.grib2 2026-05-09 20:52 484K
20260509T18Z_MSC_RDPS_WindDir_IsbL-0350_RLatLon0.09_PT045H.grib2 2026-05-09 20:52 514K
20260509T18Z_MSC_RDPS_WindDir_IsbL-0400_RLatLon0.09_PT045H.grib2 2026-05-09 20:52 540K
20260509T18Z_MSC_RDPS_WindDir_IsbL-0450_RLatLon0.09_PT045H.grib2 2026-05-09 20:52 555K
20260509T18Z_MSC_RDPS_WindDir_IsbL-0500_RLatLon0.09_PT045H.grib2 2026-05-09 20:52 570K
20260509T18Z_MSC_RDPS_WindDir_IsbL-0550_RLatLon0.09_PT045H.grib2 2026-05-09 20:52 586K
20260509T18Z_MSC_RDPS_WindDir_IsbL-0600_RLatLon0.09_PT045H.grib2 2026-05-09 20:52 605K
20260509T18Z_MSC_RDPS_WindDir_IsbL-0650_RLatLon0.09_PT045H.grib2 2026-05-09 20:52 633K
20260509T18Z_MSC_RDPS_WindDir_IsbL-0700_RLatLon0.09_PT045H.grib2 2026-05-09 20:52 666K
20260509T18Z_MSC_RDPS_WindDir_IsbL-0750_RLatLon0.09_PT045H.grib2 2026-05-09 20:52 710K
20260509T18Z_MSC_RDPS_WindDir_IsbL-0800_RLatLon0.09_PT045H.grib2 2026-05-09 20:52 783K
20260509T18Z_MSC_RDPS_WindDir_IsbL-0850_RLatLon0.09_PT045H.grib2 2026-05-09 20:52 857K
20260509T18Z_MSC_RDPS_WindDir_IsbL-0875_RLatLon0.09_PT045H.grib2 2026-05-09 20:52 883K
20260509T18Z_MSC_RDPS_WindDir_IsbL-0900_RLatLon0.09_PT045H.grib2 2026-05-09 20:52 904K
20260509T18Z_MSC_RDPS_WindDir_IsbL-0925_RLatLon0.09_PT045H.grib2 2026-05-09 20:52 922K
20260509T18Z_MSC_RDPS_WindDir_IsbL-0950_RLatLon0.09_PT045H.grib2 2026-05-09 20:52 928K
20260509T18Z_MSC_RDPS_WindDir_IsbL-0970_RLatLon0.09_PT045H.grib2 2026-05-09 20:52 930K
20260509T18Z_MSC_RDPS_WindDir_IsbL-0985_RLatLon0.09_PT045H.grib2 2026-05-09 20:52 942K
20260509T18Z_MSC_RDPS_WindDir_IsbL-1000_RLatLon0.09_PT045H.grib2 2026-05-09 20:52 960K
20260509T18Z_MSC_RDPS_WindDir_IsbL-1015_RLatLon0.09_PT045H.grib2 2026-05-09 20:52 1.0M
20260509T18Z_MSC_RDPS_WindGust-Max_AGL-10m_RLatLon0.09_PT045H.grib2 2026-05-09 20:52 956K
20260509T18Z_MSC_RDPS_WindGust-Min_AGL-10m_RLatLon0.09_PT045H.grib2 2026-05-09 20:52 1.0M
20260509T18Z_MSC_RDPS_WindGust_AGL-10m_RLatLon0.09_PT045H.grib2 2026-05-09 20:52 953K
20260509T18Z_MSC_RDPS_WindSpeed_AGL-10m_RLatLon0.09_PT045H.grib2 2026-05-09 20:52 853K
20260509T18Z_MSC_RDPS_WindSpeed_AGL-120m_RLatLon0.09_PT045H.grib2 2026-05-09 20:52 557K
20260509T18Z_MSC_RDPS_WindSpeed_AGL-40m_RLatLon0.09_PT045H.grib2 2026-05-09 20:52 560K
20260509T18Z_MSC_RDPS_WindSpeed_AGL-80m_RLatLon0.09_PT045H.grib2 2026-05-09 20:52 558K
20260509T18Z_MSC_RDPS_WindSpeed_IsbL-0001_RLatLon0.09_PT045H.grib2 2026-05-09 20:52 257K
20260509T18Z_MSC_RDPS_WindSpeed_IsbL-0005_RLatLon0.09_PT045H.grib2 2026-05-09 20:52 390K
20260509T18Z_MSC_RDPS_WindSpeed_IsbL-0010_RLatLon0.09_PT045H.grib2 2026-05-09 20:52 368K
20260509T18Z_MSC_RDPS_WindSpeed_IsbL-0020_RLatLon0.09_PT045H.grib2 2026-05-09 20:52 326K
20260509T18Z_MSC_RDPS_WindSpeed_IsbL-0030_RLatLon0.09_PT045H.grib2 2026-05-09 20:52 323K
20260509T18Z_MSC_RDPS_WindSpeed_IsbL-0050_RLatLon0.09_PT045H.grib2 2026-05-09 20:52 346K
20260509T18Z_MSC_RDPS_WindSpeed_IsbL-0100_RLatLon0.09_PT045H.grib2 2026-05-09 20:52 469K
20260509T18Z_MSC_RDPS_WindSpeed_IsbL-0150_RLatLon0.09_PT045H.grib2 2026-05-09 20:52 367K
20260509T18Z_MSC_RDPS_WindSpeed_IsbL-0175_RLatLon0.09_PT045H.grib2 2026-05-09 20:52 417K
20260509T18Z_MSC_RDPS_WindSpeed_IsbL-0200_RLatLon0.09_PT045H.grib2 2026-05-09 20:52 433K
20260509T18Z_MSC_RDPS_WindSpeed_IsbL-0225_RLatLon0.09_PT045H.grib2 2026-05-09 20:52 442K
20260509T18Z_MSC_RDPS_WindSpeed_IsbL-0250_RLatLon0.09_PT045H.grib2 2026-05-09 20:52 447K
20260509T18Z_MSC_RDPS_WindSpeed_IsbL-0275_RLatLon0.09_PT045H.grib2 2026-05-09 20:52 468K
20260509T18Z_MSC_RDPS_WindSpeed_IsbL-0300_RLatLon0.09_PT045H.grib2 2026-05-09 20:52 467K
20260509T18Z_MSC_RDPS_WindSpeed_IsbL-0350_RLatLon0.09_PT045H.grib2 2026-05-09 20:52 475K
20260509T18Z_MSC_RDPS_WindSpeed_IsbL-0400_RLatLon0.09_PT045H.grib2 2026-05-09 20:52 461K
20260509T18Z_MSC_RDPS_WindSpeed_IsbL-0450_RLatLon0.09_PT045H.grib2 2026-05-09 20:52 466K
20260509T18Z_MSC_RDPS_WindSpeed_IsbL-0500_RLatLon0.09_PT045H.grib2 2026-05-09 20:52 468K
20260509T18Z_MSC_RDPS_WindSpeed_IsbL-0550_RLatLon0.09_PT045H.grib2 2026-05-09 20:52 468K
20260509T18Z_MSC_RDPS_WindSpeed_IsbL-0600_RLatLon0.09_PT045H.grib2 2026-05-09 20:52 594K
20260509T18Z_MSC_RDPS_WindSpeed_IsbL-0650_RLatLon0.09_PT045H.grib2 2026-05-09 20:52 656K
20260509T18Z_MSC_RDPS_WindSpeed_IsbL-0700_RLatLon0.09_PT045H.grib2 2026-05-09 20:52 635K
20260509T18Z_MSC_RDPS_WindSpeed_IsbL-0750_RLatLon0.09_PT045H.grib2 2026-05-09 20:52 665K
20260509T18Z_MSC_RDPS_WindSpeed_IsbL-0800_RLatLon0.09_PT045H.grib2 2026-05-09 20:52 720K
20260509T18Z_MSC_RDPS_WindSpeed_IsbL-0850_RLatLon0.09_PT045H.grib2 2026-05-09 20:52 776K
20260509T18Z_MSC_RDPS_WindSpeed_IsbL-0875_RLatLon0.09_PT045H.grib2 2026-05-09 20:52 794K
20260509T18Z_MSC_RDPS_WindSpeed_IsbL-0900_RLatLon0.09_PT045H.grib2 2026-05-09 20:52 809K
20260509T18Z_MSC_RDPS_WindSpeed_IsbL-0925_RLatLon0.09_PT045H.grib2 2026-05-09 20:52 870K
20260509T18Z_MSC_RDPS_WindSpeed_IsbL-0950_RLatLon0.09_PT045H.grib2 2026-05-09 20:52 872K
20260509T18Z_MSC_RDPS_WindSpeed_IsbL-0970_RLatLon0.09_PT045H.grib2 2026-05-09 20:52 869K
20260509T18Z_MSC_RDPS_WindSpeed_IsbL-0985_RLatLon0.09_PT045H.grib2 2026-05-09 20:52 861K
20260509T18Z_MSC_RDPS_WindSpeed_IsbL-1000_RLatLon0.09_PT045H.grib2 2026-05-09 20:52 858K
20260509T18Z_MSC_RDPS_WindSpeed_IsbL-1015_RLatLon0.09_PT045H.grib2 2026-05-09 20:52 853K
20260509T18Z_MSC_RDPS_WindU_AGL-10m_RLatLon0.09_PT045H.grib2 2026-05-09 20:52 440K
20260509T18Z_MSC_RDPS_WindU_AGL-120m_RLatLon0.09_PT045H.grib2 2026-05-09 20:52 425K
20260509T18Z_MSC_RDPS_WindU_AGL-40m_RLatLon0.09_PT045H.grib2 2026-05-09 20:52 545K
20260509T18Z_MSC_RDPS_WindU_AGL-80m_RLatLon0.09_PT045H.grib2 2026-05-09 20:52 426K
20260509T18Z_MSC_RDPS_WindU_IsbL-0001_RLatLon0.09_PT045H.grib2 2026-05-09 20:52 296K
20260509T18Z_MSC_RDPS_WindU_IsbL-0005_RLatLon0.09_PT045H.grib2 2026-05-09 20:52 288K
20260509T18Z_MSC_RDPS_WindU_IsbL-0010_RLatLon0.09_PT045H.grib2 2026-05-09 20:52 299K
20260509T18Z_MSC_RDPS_WindU_IsbL-0020_RLatLon0.09_PT045H.grib2 2026-05-09 20:52 317K
20260509T18Z_MSC_RDPS_WindU_IsbL-0030_RLatLon0.09_PT045H.grib2 2026-05-09 20:52 353K
20260509T18Z_MSC_RDPS_WindU_IsbL-0050_RLatLon0.09_PT045H.grib2 2026-05-09 20:52 341K
20260509T18Z_MSC_RDPS_WindU_IsbL-0100_RLatLon0.09_PT045H.grib2 2026-05-09 20:52 461K
20260509T18Z_MSC_RDPS_WindU_IsbL-0150_RLatLon0.09_PT045H.grib2 2026-05-09 20:52 384K
20260509T18Z_MSC_RDPS_WindU_IsbL-0175_RLatLon0.09_PT045H.grib2 2026-05-09 20:52 410K
20260509T18Z_MSC_RDPS_WindU_IsbL-0200_RLatLon0.09_PT045H.grib2 2026-05-09 20:52 425K
20260509T18Z_MSC_RDPS_WindU_IsbL-0225_RLatLon0.09_PT045H.grib2 2026-05-09 20:52 433K
20260509T18Z_MSC_RDPS_WindU_IsbL-0250_RLatLon0.09_PT045H.grib2 2026-05-09 20:52 437K
20260509T18Z_MSC_RDPS_WindU_IsbL-0275_RLatLon0.09_PT045H.grib2 2026-05-09 20:52 457K
20260509T18Z_MSC_RDPS_WindU_IsbL-0300_RLatLon0.09_PT045H.grib2 2026-05-09 20:52 353K
20260509T18Z_MSC_RDPS_WindU_IsbL-0350_RLatLon0.09_PT045H.grib2 2026-05-09 20:52 360K
20260509T18Z_MSC_RDPS_WindU_IsbL-0400_RLatLon0.09_PT045H.grib2 2026-05-09 20:52 468K
20260509T18Z_MSC_RDPS_WindU_IsbL-0450_RLatLon0.09_PT045H.grib2 2026-05-09 20:52 472K
20260509T18Z_MSC_RDPS_WindU_IsbL-0500_RLatLon0.09_PT045H.grib2 2026-05-09 20:52 474K
20260509T18Z_MSC_RDPS_WindU_IsbL-0550_RLatLon0.09_PT045H.grib2 2026-05-09 20:52 456K
20260509T18Z_MSC_RDPS_WindU_IsbL-0600_RLatLon0.09_PT045H.grib2 2026-05-09 20:52 463K
20260509T18Z_MSC_RDPS_WindU_IsbL-0650_RLatLon0.09_PT045H.grib2 2026-05-09 20:52 481K
20260509T18Z_MSC_RDPS_WindU_IsbL-0700_RLatLon0.09_PT045H.grib2 2026-05-09 20:52 502K
20260509T18Z_MSC_RDPS_WindU_IsbL-0750_RLatLon0.09_PT045H.grib2 2026-05-09 20:52 530K
20260509T18Z_MSC_RDPS_WindU_IsbL-0800_RLatLon0.09_PT045H.grib2 2026-05-09 20:52 579K
20260509T18Z_MSC_RDPS_WindU_IsbL-0850_RLatLon0.09_PT045H.grib2 2026-05-09 20:52 629K
20260509T18Z_MSC_RDPS_WindU_IsbL-0875_RLatLon0.09_PT045H.grib2 2026-05-09 20:52 645K
20260509T18Z_MSC_RDPS_WindU_IsbL-0900_RLatLon0.09_PT045H.grib2 2026-05-09 20:52 658K
20260509T18Z_MSC_RDPS_WindU_IsbL-0925_RLatLon0.09_PT045H.grib2 2026-05-09 20:52 668K
20260509T18Z_MSC_RDPS_WindU_IsbL-0950_RLatLon0.09_PT045H.grib2 2026-05-09 20:52 667K
20260509T18Z_MSC_RDPS_WindU_IsbL-0970_RLatLon0.09_PT045H.grib2 2026-05-09 20:52 662K
20260509T18Z_MSC_RDPS_WindU_IsbL-0985_RLatLon0.09_PT045H.grib2 2026-05-09 20:52 799K
20260509T18Z_MSC_RDPS_WindU_IsbL-1000_RLatLon0.09_PT045H.grib2 2026-05-09 20:52 796K
20260509T18Z_MSC_RDPS_WindU_IsbL-1015_RLatLon0.09_PT045H.grib2 2026-05-09 20:52 793K
20260509T18Z_MSC_RDPS_WindV_AGL-10m_RLatLon0.09_PT045H.grib2 2026-05-09 20:52 436K
20260509T18Z_MSC_RDPS_WindV_AGL-120m_RLatLon0.09_PT045H.grib2 2026-05-09 20:52 538K
20260509T18Z_MSC_RDPS_WindV_AGL-40m_RLatLon0.09_PT045H.grib2 2026-05-09 20:52 540K
20260509T18Z_MSC_RDPS_WindV_AGL-80m_RLatLon0.09_PT045H.grib2 2026-05-09 20:52 538K
20260509T18Z_MSC_RDPS_WindV_IsbL-0001_RLatLon0.09_PT045H.grib2 2026-05-09 20:52 250K
20260509T18Z_MSC_RDPS_WindV_IsbL-0005_RLatLon0.09_PT045H.grib2 2026-05-09 20:52 378K
20260509T18Z_MSC_RDPS_WindV_IsbL-0010_RLatLon0.09_PT045H.grib2 2026-05-09 20:52 301K
20260509T18Z_MSC_RDPS_WindV_IsbL-0020_RLatLon0.09_PT045H.grib2 2026-05-09 20:52 320K
20260509T18Z_MSC_RDPS_WindV_IsbL-0030_RLatLon0.09_PT045H.grib2 2026-05-09 20:52 317K
20260509T18Z_MSC_RDPS_WindV_IsbL-0050_RLatLon0.09_PT045H.grib2 2026-05-09 20:52 376K
20260509T18Z_MSC_RDPS_WindV_IsbL-0100_RLatLon0.09_PT045H.grib2 2026-05-09 20:52 421K
20260509T18Z_MSC_RDPS_WindV_IsbL-0150_RLatLon0.09_PT045H.grib2 2026-05-09 20:52 383K
20260509T18Z_MSC_RDPS_WindV_IsbL-0175_RLatLon0.09_PT045H.grib2 2026-05-09 20:52 408K
20260509T18Z_MSC_RDPS_WindV_IsbL-0200_RLatLon0.09_PT045H.grib2 2026-05-09 20:52 328K
20260509T18Z_MSC_RDPS_WindV_IsbL-0225_RLatLon0.09_PT045H.grib2 2026-05-09 20:52 333K
20260509T18Z_MSC_RDPS_WindV_IsbL-0250_RLatLon0.09_PT045H.grib2 2026-05-09 20:52 336K
20260509T18Z_MSC_RDPS_WindV_IsbL-0275_RLatLon0.09_PT045H.grib2 2026-05-09 20:52 353K
20260509T18Z_MSC_RDPS_WindV_IsbL-0300_RLatLon0.09_PT045H.grib2 2026-05-09 20:52 350K
20260509T18Z_MSC_RDPS_WindV_IsbL-0350_RLatLon0.09_PT045H.grib2 2026-05-09 20:52 358K
20260509T18Z_MSC_RDPS_WindV_IsbL-0400_RLatLon0.09_PT045H.grib2 2026-05-09 20:52 362K
20260509T18Z_MSC_RDPS_WindV_IsbL-0450_RLatLon0.09_PT045H.grib2 2026-05-09 20:52 468K
20260509T18Z_MSC_RDPS_WindV_IsbL-0500_RLatLon0.09_PT045H.grib2 2026-05-09 20:52 471K
20260509T18Z_MSC_RDPS_WindV_IsbL-0550_RLatLon0.09_PT045H.grib2 2026-05-09 20:52 471K
20260509T18Z_MSC_RDPS_WindV_IsbL-0600_RLatLon0.09_PT045H.grib2 2026-05-09 20:52 477K
20260509T18Z_MSC_RDPS_WindV_IsbL-0650_RLatLon0.09_PT045H.grib2 2026-05-09 20:52 477K
20260509T18Z_MSC_RDPS_WindV_IsbL-0700_RLatLon0.09_PT045H.grib2 2026-05-09 20:52 498K
20260509T18Z_MSC_RDPS_WindV_IsbL-0750_RLatLon0.09_PT045H.grib2 2026-05-09 20:52 526K
20260509T18Z_MSC_RDPS_WindV_IsbL-0800_RLatLon0.09_PT045H.grib2 2026-05-09 20:52 574K
20260509T18Z_MSC_RDPS_WindV_IsbL-0850_RLatLon0.09_PT045H.grib2 2026-05-09 20:52 622K
20260509T18Z_MSC_RDPS_WindV_IsbL-0875_RLatLon0.09_PT045H.grib2 2026-05-09 20:52 638K
20260509T18Z_MSC_RDPS_WindV_IsbL-0900_RLatLon0.09_PT045H.grib2 2026-05-09 20:52 650K
20260509T18Z_MSC_RDPS_WindV_IsbL-0925_RLatLon0.09_PT045H.grib2 2026-05-09 20:52 661K
20260509T18Z_MSC_RDPS_WindV_IsbL-0950_RLatLon0.09_PT045H.grib2 2026-05-09 20:52 659K
20260509T18Z_MSC_RDPS_WindV_IsbL-0970_RLatLon0.09_PT045H.grib2 2026-05-09 20:52 796K
20260509T18Z_MSC_RDPS_WindV_IsbL-0985_RLatLon0.09_PT045H.grib2 2026-05-09 20:52 793K
20260509T18Z_MSC_RDPS_WindV_IsbL-1000_RLatLon0.09_PT045H.grib2 2026-05-09 20:52 789K
20260509T18Z_MSC_RDPS_WindV_IsbL-1015_RLatLon0.09_PT045H.grib2 2026-05-09 20:52 834K